Location: Aulus
(42.7909°N, 1.3399°E)
Time: 17:11:52
(UTC+00:00)

Cosmos 1535 Rocket - Pass Details

Date: 19 May 2025
Orbit: 948 x 1003 km, 83.0° (Epoch: 12 June)

Event Time Altitude Azimuth Distance (km) Brightness Sun altitude
Rises 23:13:34 0° 352° (N) 3,721 8.9 -26.6°
Reaches altitude 10° 23:16:07 10° 352° (N) 2,761 7.9 -26.7°
Maximum altitude 23:22:28 89° 266° (W) 987 4.4 -26.9°
Enters shadow 23:23:18 70° 177° (S) 1,040 4.3 -26.9°
